Back to catalog

STARLINK-36542

AliveCommunicationsVLEO
NORAD 67445·PAYLOAD·🇺🇸 United States

Launched Jan 14, 2026 from Cape Canaveral Space Force Station

Loading…

Next Passes (next 24 hours)

TLE

FreshSource: CelesTrak SupGP

Epoch: Sep 14, 2026, 14:45 UTC

1 67445C 26008A   26257.61506944 -.00027835  00000+0 -10083-2 0  2576
2 67445  43.0026 218.5623 0001536 266.0267  59.3030 15.27586745    15

Track STARLINK-36542 in real time with AllMySat

Download on the App Store